Time,TemperatureF,DewpointF,PressureIn,WindDirection,WindDirectionDegrees,WindSpeedMPH,WindSpeedGustMPH,Humidity,HourlyPrecipIn,Conditions,Clouds,dailyrainin,SoftwareType,DateUTC
2013-09-30 00:01:00,51.8,51.0,29.95,ENE,72,0.0,0.0,97,0.00,RA,,0.00,WeatherDisplay:10.37,2013-09-30 04:01:00,
2013-09-30 00:02:00,51.8,51.0,29.95,ENE,72,1.1,1.1,97,0.00,RA,,0.00,WeatherDisplay:10.37,2013-09-30 04:02:00,
2013-09-30 00:04:00,51.8,51.0,29.95,ENE,72,1.1,0.0,97,0.00,RA,,0.00,WeatherDisplay:10.37,2013-09-30 04:04:00,
2013-09-30 00:07:00,51.7,50.9,29.95,ENE,72,0.0,0.0,97,0.00,RA,,0.00,WeatherDisplay:10.37,2013-09-30 04:07:00,
2013-09-30 00:12:00,51.5,50.7,29.95,ENE,72,0.0,0.0,97,0.00,CLR,,0.00,WeatherDisplay:10.37,2013-09-30 04:12:00,
2013-09-30 00:17:00,51.4,50.6,29.95,ENE,72,0.0,0.0,97,0.00,CLR,,0.00,WeatherDisplay:10.37,2013-09-30 04:17:00,
2013-09-30 00:22:00,51.2,50.4,29.95,ENE,72,0.0,0.0,97,0.00,CLR,,0.00,WeatherDisplay:10.37,2013-09-30 04:22:00,
2013-09-30 00:27:00,50.9,49.8,29.95,ENE,72,0.0,0.0,96,0.00,CLR,,0.00,WeatherDisplay:10.37,2013-09-30 04:27:00,
2013-09-30 00:32:00,50.7,49.9,29.95,ENE,72,0.0,0.0,97,0.00,CLR,,0.00,WeatherDisplay:10.37,2013-09-30 04:32:00,
2013-09-30 00:37:00,50.4,49.3,29.95,ENE,72,0.0,0.0,96,0.00,CLR,,0.00,WeatherDisplay:10.37,2013-09-30 04:37:00,
2013-09-30 00:42:00,50.2,49.4,29.95,ENE,72,0.0,0.0,97,0.00,CLR,,0.00,WeatherDisplay:10.37,2013-09-30 04:42:00,
2013-09-30 00:47:00,49.9,48.8,29.95,ENE,72,0.0,0.0,96,0.00,CLR,,0.00,WeatherDisplay:10.37,2013-09-30 04:47:00,
2013-09-30 00:52:00,49.7,48.9,29.95,ENE,72,0.0,0.0,97,0.00,CLR,,0.00,WeatherDisplay:10.37,2013-09-30 04:52:00,
2013-09-30 00:57:00,49.6,48.8,29.95,ENE,72,0.0,0.0,97,0.00,CLR,,0.00,WeatherDisplay:10.37,2013-09-30 04:57:00,
2013-09-30 01:02:00,49.3,48.2,29.95,ENE,72,0.0,0.0,96,0.00,CLR,,0.00,WeatherDisplay:10.37,2013-09-30 05:02:00,
2013-09-30 01:07:00,49.1,48.0,29.95,ENE,72,0.0,0.0,96,0.00,CLR,,0.00,WeatherDisplay:10.37,2013-09-30 05:07:00,
2013-09-30 01:12:00,48.9,48.1,29.95,ENE,72,0.0,0.0,97,0.00,CLR,,0.00,WeatherDisplay:10.37,2013-09-30 05:12:00,
2013-09-30 01:17:00,48.7,47.9,29.95,ENE,72,0.0,0.0,97,0.00,CLR,,0.00,WeatherDisplay:10.37,2013-09-30 05:17:00,
2013-09-30 01:22:00,48.6,47.8,29.95,ENE,72,0.0,0.0,97,0.00,CLR,,0.00,WeatherDisplay:10.37,2013-09-30 05:22:00,
2013-09-30 01:27:00,48.5,47.7,29.95,ENE,72,0.0,0.0,97,0.00,CLR,,0.00,WeatherDisplay:10.37,2013-09-30 05:27:00,
2013-09-30 01:32:00,48.4,47.6,29.95,ENE,72,0.0,0.0,97,0.00,CLR,,0.00,WeatherDisplay:10.37,2013-09-30 05:32:00,
2013-09-30 01:37:00,48.3,47.5,29.95,ENE,72,0.0,0.0,97,0.00,CLR,,0.00,WeatherDisplay:10.37,2013-09-30 05:37:00,
2013-09-30 01:42:00,48.1,47.3,29.95,ENE,72,0.0,0.0,97,0.00,CLR,,0.00,WeatherDisplay:10.37,2013-09-30 05:42:00,
2013-09-30 01:47:00,48.0,47.2,29.95,ENE,72,0.0,0.0,97,0.00,CLR,,0.00,WeatherDisplay:10.37,2013-09-30 05:47:00,
2013-09-30 01:52:00,48.0,47.2,29.95,ENE,72,0.0,0.0,97,0.00,CLR,,0.00,WeatherDisplay:10.37,2013-09-30 05:52:00,
2013-09-30 01:57:00,48.1,47.3,29.95,ENE,72,0.0,0.0,97,0.00,CLR,,0.00,WeatherDisplay:10.37,2013-09-30 05:57:00,
2013-09-30 02:02:00,48.1,47.3,29.96,ENE,72,0.0,0.0,97,0.00,CLR,,0.00,WeatherDisplay:10.37,2013-09-30 06:02:00,
2013-09-30 02:07:00,48.1,47.3,29.95,ENE,72,0.0,0.0,97,0.00,CLR,,0.00,WeatherDisplay:10.37,2013-09-30 06:07:00,
2013-09-30 02:12:00,48.1,47.3,29.96,ENE,72,0.0,0.0,97,0.00,CLR,,0.00,WeatherDisplay:10.37,2013-09-30 06:12:00,
2013-09-30 02:17:00,48.1,47.3,29.95,ENE,72,0.0,0.0,97,0.00,CLR,,0.00,WeatherDisplay:10.37,2013-09-30 06:17:00,
2013-09-30 02:22:00,48.0,47.2,29.95,ENE,72,0.0,0.0,97,0.00,CLR,,0.00,WeatherDisplay:10.37,2013-09-30 06:22:00,
2013-09-30 02:27:00,48.1,47.3,29.95,ENE,72,0.0,0.0,97,0.00,CLR,,0.00,WeatherDisplay:10.37,2013-09-30 06:27:00,
2013-09-30 02:32:00,48.2,47.4,29.95,ENE,72,0.0,0.0,97,0.00,CLR,,0.00,WeatherDisplay:10.37,2013-09-30 06:32:00,
2013-09-30 02:37:00,48.2,47.4,29.95,ENE,72,0.0,0.0,97,0.00,CLR,,0.00,WeatherDisplay:10.37,2013-09-30 06:37:00,
2013-09-30 02:42:00,48.2,47.4,29.95,ENE,72,0.0,0.0,97,0.00,CLR,,0.00,WeatherDisplay:10.37,2013-09-30 06:42:00,
2013-09-30 02:47:00,48.4,47.6,29.95,ENE,72,0.0,0.0,97,0.00,CLR,,0.00,WeatherDisplay:10.37,2013-09-30 06:47:00,
2013-09-30 02:52:00,48.5,47.7,29.95,ENE,72,0.0,0.0,97,0.00,CLR,,0.00,WeatherDisplay:10.37,2013-09-30 06:52:00,
2013-09-30 02:57:00,48.7,47.9,29.95,ENE,72,0.0,0.0,97,0.00,CLR,,0.00,WeatherDisplay:10.37,2013-09-30 06:57:00,
2013-09-30 03:02:00,48.7,47.9,29.95,ENE,72,0.0,0.0,97,0.00,CLR,,0.00,WeatherDisplay:10.37,2013-09-30 07:02:00,
2013-09-30 03:07:00,48.8,48.0,29.95,ENE,72,0.0,0.0,97,0.00,CLR,,0.00,WeatherDisplay:10.37,2013-09-30 07:07:00,
2013-09-30 03:12:00,48.9,48.1,29.95,ENE,72,0.0,0.0,97,0.00,CLR,,0.00,WeatherDisplay:10.37,2013-09-30 07:12:00,
2013-09-30 03:17:00,49.0,48.2,29.95,ENE,72,0.0,0.0,97,0.00,CLR,,0.00,WeatherDisplay:10.37,2013-09-30 07:17:00,
2013-09-30 03:22:00,49.2,48.7,29.95,ENE,72,0.0,0.0,98,0.00,CLR,,0.00,WeatherDisplay:10.37,2013-09-30 07:22:00,
2013-09-30 03:27:00,49.4,48.9,29.95,ENE,72,0.0,0.0,98,0.00,CLR,,0.00,WeatherDisplay:10.37,2013-09-30 07:27:00,
2013-09-30 03:32:00,49.6,49.1,29.95,ENE,72,0.0,0.0,98,0.00,CLR,,0.00,WeatherDisplay:10.37,2013-09-30 07:32:00,
2013-09-30 03:37:00,49.7,49.2,29.95,ENE,72,0.0,0.0,98,0.00,CLR,,0.00,WeatherDisplay:10.37,2013-09-30 07:37:00,
2013-09-30 03:42:00,49.8,49.3,29.95,ENE,72,0.0,0.0,98,0.00,CLR,,0.00,WeatherDisplay:10.37,2013-09-30 07:42:00,
2013-09-30 03:47:00,49.9,49.4,29.95,ENE,72,0.0,0.0,98,0.00,CLR,,0.00,WeatherDisplay:10.37,2013-09-30 07:47:00,
2013-09-30 03:52:00,50.0,49.5,29.95,ENE,72,0.0,0.0,98,0.00,CLR,,0.00,WeatherDisplay:10.37,2013-09-30 07:52:00,
2013-09-30 03:57:00,50.0,49.5,29.94,ENE,72,0.0,0.0,98,0.00,CLR,,0.00,WeatherDisplay:10.37,2013-09-30 07:57:00,
2013-09-30 04:02:00,50.1,49.6,29.95,ENE,72,0.0,0.0,98,0.00,CLR,,0.00,WeatherDisplay:10.37,2013-09-30 08:02:00,
2013-09-30 04:07:00,50.2,49.7,29.95,ENE,72,0.0,0.0,98,0.00,CLR,,0.00,WeatherDisplay:10.37,2013-09-30 08:07:00,
2013-09-30 04:12:00,50.3,49.8,29.95,ENE,72,0.0,0.0,98,0.00,CLR,,0.00,WeatherDisplay:10.37,2013-09-30 08:12:00,
2013-09-30 04:17:00,50.3,49.8,29.95,ENE,72,0.0,0.0,98,0.00,CLR,,0.00,WeatherDisplay:10.37,2013-09-30 08:17:00,
2013-09-30 04:22:00,50.4,49.9,29.95,ENE,72,0.0,0.0,98,0.00,CLR,,0.00,WeatherDisplay:10.37,2013-09-30 08:22:00,
2013-09-30 04:27:00,50.5,50.0,29.95,ENE,72,0.0,0.0,98,0.00,CLR,,0.00,WeatherDisplay:10.37,2013-09-30 08:27:00,
2013-09-30 04:32:00,50.5,50.0,29.95,ENE,72,0.0,0.0,98,0.00,CLR,,0.00,WeatherDisplay:10.37,2013-09-30 08:32:00,
2013-09-30 04:37:00,50.6,50.1,29.95,ENE,72,0.0,0.0,98,0.00,CLR,,0.00,WeatherDisplay:10.37,2013-09-30 08:37:00,
2013-09-30 04:42:00,50.7,50.2,29.95,ENE,72,0.0,0.0,98,0.00,CLR,,0.00,WeatherDisplay:10.37,2013-09-30 08:42:00,
2013-09-30 04:47:00,50.9,50.4,29.95,ENE,72,0.0,0.0,98,0.00,CLR,,0.00,WeatherDisplay:10.37,2013-09-30 08:47:00,
2013-09-30 04:52:00,51.0,50.5,29.95,ENE,72,0.0,0.0,98,0.00,CLR,,0.00,WeatherDisplay:10.37,2013-09-30 08:52:00,
2013-09-30 04:57:00,51.0,50.5,29.95,ENE,72,0.0,0.0,98,0.00,CLR,,0.00,WeatherDisplay:10.37,2013-09-30 08:57:00,
2013-09-30 05:02:00,51.1,50.6,29.95,ENE,72,0.0,0.0,98,0.00,CLR,,0.00,WeatherDisplay:10.37,2013-09-30 09:02:00,
2013-09-30 05:07:00,51.2,50.7,29.95,ENE,72,0.0,0.0,98,0.00,CLR,,0.00,WeatherDisplay:10.37,2013-09-30 09:07:00,
2013-09-30 05:12:00,51.2,50.7,29.95,ENE,72,0.0,0.0,98,0.00,CLR,,0.00,WeatherDisplay:10.37,2013-09-30 09:12:00,
2013-09-30 05:17:00,51.3,50.8,29.95,ENE,72,0.0,0.0,98,0.00,CLR,,0.00,WeatherDisplay:10.37,2013-09-30 09:17:00,
2013-09-30 05:22:00,51.3,50.8,29.95,ENE,72,0.0,0.0,98,0.00,CLR,,0.00,WeatherDisplay:10.37,2013-09-30 09:22:00,
2013-09-30 05:27:00,51.3,50.8,29.95,ENE,72,0.0,0.0,98,0.00,CLR,,0.00,WeatherDisplay:10.37,2013-09-30 09:27:00,
2013-09-30 05:32:00,51.2,50.7,29.95,ENE,72,0.0,0.0,98,0.00,CLR,,0.00,WeatherDisplay:10.37,2013-09-30 09:32:00,
2013-09-30 05:37:00,51.2,50.7,29.95,ENE,72,0.0,0.0,98,0.00,CLR,,0.00,WeatherDisplay:10.37,2013-09-30 09:37:00,
2013-09-30 05:42:00,51.1,50.6,29.95,ENE,72,0.0,0.0,98,0.00,CLR,,0.00,WeatherDisplay:10.37,2013-09-30 09:42:00,
2013-09-30 05:47:00,51.0,50.5,29.95,ENE,72,0.0,0.0,98,0.00,CLR,,0.00,WeatherDisplay:10.37,2013-09-30 09:47:00,
2013-09-30 05:52:00,50.8,50.3,29.95,ENE,72,0.0,0.0,98,0.00,CLR,,0.00,WeatherDisplay:10.37,2013-09-30 09:52:00,
2013-09-30 05:57:00,50.6,50.1,29.95,ENE,72,0.0,0.0,98,0.00,CLR,,0.00,WeatherDisplay:10.37,2013-09-30 09:57:00,
2013-09-30 06:02:00,50.3,49.8,29.95,ENE,72,0.0,0.0,98,0.00,CLR,,0.00,WeatherDisplay:10.37,2013-09-30 10:02:00,
2013-09-30 06:07:00,50.1,49.6,29.95,ENE,72,0.0,0.0,98,0.00,CLR,,0.00,WeatherDisplay:10.37,2013-09-30 10:07:00,
2013-09-30 06:12:00,49.9,49.4,29.95,ENE,72,0.0,0.0,98,0.00,CLR,,0.00,WeatherDisplay:10.37,2013-09-30 10:12:00,
2013-09-30 06:17:00,49.7,49.2,29.95,ENE,72,0.0,0.0,98,0.00,CLR,,0.00,WeatherDisplay:10.37,2013-09-30 10:17:00,
2013-09-30 06:22:00,49.5,49.0,29.95,ENE,72,0.0,0.0,98,0.00,CLR,,0.00,WeatherDisplay:10.37,2013-09-30 10:22:00,
2013-09-30 06:27:00,49.4,48.9,29.95,ENE,72,0.0,0.0,98,0.00,CLR,,0.00,WeatherDisplay:10.37,2013-09-30 10:27:00,
2013-09-30 06:32:00,49.2,48.7,29.95,ENE,72,0.0,0.0,98,0.00,CLR,,0.00,WeatherDisplay:10.37,2013-09-30 10:32:00,
2013-09-30 06:37:00,49.1,48.6,29.96,ENE,72,0.0,0.0,98,0.00,CLR,,0.00,WeatherDisplay:10.37,2013-09-30 10:37:00,
2013-09-30 06:42:00,48.9,48.4,29.96,ENE,72,0.0,0.0,98,0.00,CLR,,0.00,WeatherDisplay:10.37,2013-09-30 10:42:00,
2013-09-30 06:47:00,48.7,48.2,29.96,ENE,72,0.0,0.0,98,0.00,CLR,,0.00,WeatherDisplay:10.37,2013-09-30 10:47:00,
2013-09-30 06:52:00,48.5,47.7,29.96,ENE,72,0.0,0.0,97,0.00,CLR,,0.00,WeatherDisplay:10.37,2013-09-30 10:52:00,
2013-09-30 06:57:00,48.3,47.8,29.96,ENE,72,0.0,0.0,98,0.00,CLR,,0.00,WeatherDisplay:10.37,2013-09-30 10:57:00,
2013-09-30 07:02:00,48.1,47.6,29.96,ENE,72,0.0,0.0,98,0.00,CLR,,0.00,WeatherDisplay:10.37,2013-09-30 11:02:00,
2013-09-30 07:07:00,48.0,47.5,29.96,ENE,72,0.0,0.0,98,0.00,CLR,,0.00,WeatherDisplay:10.37,2013-09-30 11:07:00,
2013-09-30 07:12:00,47.9,47.4,29.97,ENE,72,0.0,0.0,98,0.00,CLR,,0.00,WeatherDisplay:10.37,2013-09-30 11:12:00,
2013-09-30 07:17:00,47.8,47.3,29.97,ENE,72,0.0,0.0,98,0.00,CLR,,0.00,WeatherDisplay:10.37,2013-09-30 11:17:00,
2013-09-30 07:22:00,47.8,47.3,29.97,ENE,72,0.0,0.0,98,0.00,CLR,,0.00,WeatherDisplay:10.37,2013-09-30 11:22:00,
2013-09-30 07:27:00,47.7,47.2,29.97,ENE,72,0.0,0.0,98,0.00,CLR,,0.00,WeatherDisplay:10.37,2013-09-30 11:27:00,
2013-09-30 07:32:00,47.7,47.2,29.97,ENE,72,0.0,0.0,98,0.00,CLR,,0.00,WeatherDisplay:10.37,2013-09-30 11:32:00,
2013-09-30 07:37:00,47.6,47.1,29.97,ENE,72,0.0,0.0,98,0.00,CLR,,0.00,WeatherDisplay:10.37,2013-09-30 11:37:00,
2013-09-30 07:42:00,47.5,47.0,29.97,ENE,72,0.0,0.0,98,0.00,CLR,,0.00,WeatherDisplay:10.37,2013-09-30 11:42:00,
2013-09-30 07:47:00,47.4,46.9,29.97,ENE,72,0.0,0.0,98,0.00,CLR,,0.00,WeatherDisplay:10.37,2013-09-30 11:47:00,
2013-09-30 07:52:00,47.4,46.9,29.98,ENE,72,0.0,0.0,98,0.00,CLR,,0.00,WeatherDisplay:10.37,2013-09-30 11:52:00,
2013-09-30 07:57:00,47.5,47.0,29.98,ENE,72,0.0,0.0,98,0.00,CLR,,0.00,WeatherDisplay:10.37,2013-09-30 11:57:00,
2013-09-30 08:02:00,47.5,47.0,29.98,ENE,72,0.0,0.0,98,0.00,CLR,,0.00,WeatherDisplay:10.37,2013-09-30 12:02:00,
2013-09-30 08:07:00,47.6,47.1,29.98,ENE,72,0.0,0.0,98,0.00,CLR,,0.00,WeatherDisplay:10.37,2013-09-30 12:07:00,
2013-09-30 08:12:00,47.6,47.1,29.98,ENE,72,0.0,0.0,98,0.00,CLR,,0.00,WeatherDisplay:10.37,2013-09-30 12:12:00,
2013-09-30 08:17:00,47.7,47.2,29.98,ENE,72,0.0,0.0,98,0.00,CLR,,0.00,WeatherDisplay:10.37,2013-09-30 12:17:00,
2013-09-30 08:22:00,47.8,47.3,29.98,ENE,72,0.0,0.0,98,0.00,CLR,,0.00,WeatherDisplay:10.37,2013-09-30 12:22:00,
2013-09-30 08:27:00,47.9,47.4,29.98,ENE,72,0.0,0.0,98,0.00,CLR,,0.00,WeatherDisplay:10.37,2013-09-30 12:27:00,
2013-09-30 08:32:00,48.0,47.5,29.98,ENE,72,0.0,0.0,98,0.00,CLR,,0.00,WeatherDisplay:10.37,2013-09-30 12:32:00,
2013-09-30 08:37:00,48.3,47.8,29.98,ENE,72,0.0,0.0,98,0.00,CLR,,0.00,WeatherDisplay:10.37,2013-09-30 12:37:00,
2013-09-30 08:42:00,48.7,48.2,29.98,ENE,72,0.0,0.0,98,0.00,CLR,,0.00,WeatherDisplay:10.37,2013-09-30 12:42:00,
2013-09-30 08:47:00,49.0,48.5,29.98,ENE,72,0.0,0.0,98,0.00,CLR,,0.00,WeatherDisplay:10.37,2013-09-30 12:47:00,
2013-09-30 08:52:00,49.3,48.8,29.98,ENE,72,0.0,0.0,98,0.00,CLR,,0.00,WeatherDisplay:10.37,2013-09-30 12:52:00,
2013-09-30 08:57:00,49.6,49.1,29.97,ENE,72,0.0,0.0,98,0.00,CLR,,0.00,WeatherDisplay:10.37,2013-09-30 12:57:00,
2013-09-30 09:02:00,49.9,49.4,29.97,ENE,72,0.0,0.0,98,0.00,CLR,,0.00,WeatherDisplay:10.37,2013-09-30 13:02:00,
2013-09-30 09:07:00,50.0,49.5,29.97,ENE,72,0.0,0.0,98,0.00,CLR,,0.00,WeatherDisplay:10.37,2013-09-30 13:07:00,
2013-09-30 09:12:00,50.4,49.9,29.97,ENE,72,0.0,0.0,98,0.00,CLR,,0.00,WeatherDisplay:10.37,2013-09-30 13:12:00,
2013-09-30 09:17:00,50.8,50.3,29.97,ENE,72,0.0,0.0,98,0.00,CLR,,0.00,WeatherDisplay:10.37,2013-09-30 13:17:00,
2013-09-30 09:22:00,51.2,50.7,29.97,ENE,72,0.0,0.0,98,0.00,CLR,,0.00,WeatherDisplay:10.37,2013-09-30 13:22:00,
2013-09-30 09:27:00,51.4,50.9,29.97,ENE,72,0.0,0.0,98,0.00,CLR,,0.00,WeatherDisplay:10.37,2013-09-30 13:27:00,
2013-09-30 09:32:00,51.9,51.6,29.97,ENE,72,0.0,0.0,99,0.00,CLR,,0.00,WeatherDisplay:10.37,2013-09-30 13:32:00,
2013-09-30 09:37:00,52.2,51.7,29.97,ENE,72,0.0,0.0,98,0.00,CLR,,0.00,WeatherDisplay:10.37,2013-09-30 13:37:00,
2013-09-30 09:42:00,52.4,51.9,29.97,ENE,72,0.0,0.0,98,0.00,CLR,,0.00,WeatherDisplay:10.37,2013-09-30 13:42:00,
2013-09-30 09:47:00,52.9,52.4,29.96,ENE,72,0.0,0.0,98,0.00,CLR,,0.00,WeatherDisplay:10.37,2013-09-30 13:47:00,
2013-09-30 09:52:00,52.9,52.4,29.96,ENE,72,0.0,0.0,98,0.00,CLR,,0.00,WeatherDisplay:10.37,2013-09-30 13:52:00,
2013-09-30 09:57:00,53.1,52.8,29.96,ENE,72,0.0,0.0,99,0.00,CLR,,0.00,WeatherDisplay:10.37,2013-09-30 13:57:00,
2013-09-30 10:02:00,53.3,53.0,29.96,ENE,72,0.0,0.0,99,0.00,CLR,,0.00,WeatherDisplay:10.37,2013-09-30 14:02:00,
2013-09-30 10:07:00,53.6,53.0,29.96,ENE,72,0.0,0.0,98,0.00,CLR,,0.00,WeatherDisplay:10.37,2013-09-30 14:07:00,
2013-09-30 10:12:00,53.9,53.6,29.96,ENE,72,0.0,0.0,99,0.00,CLR,,0.00,WeatherDisplay:10.37,2013-09-30 14:12:00,
2013-09-30 10:17:00,54.1,53.5,29.96,ENE,72,0.0,0.0,98,0.00,CLR,,0.00,WeatherDisplay:10.37,2013-09-30 14:17:00,
2013-09-30 10:22:00,54.4,54.1,29.96,ENE,72,0.0,0.0,99,0.00,CLR,,0.00,WeatherDisplay:10.37,2013-09-30 14:22:00,
2013-09-30 10:27:00,54.9,54.3,29.96,ENE,72,0.0,0.0,98,0.00,CLR,,0.00,WeatherDisplay:10.37,2013-09-30 14:27:00,
2013-09-30 10:32:00,55.1,54.8,29.96,ENE,72,0.0,0.0,99,0.00,CLR,,0.00,WeatherDisplay:10.37,2013-09-30 14:32:00,
2013-09-30 10:37:00,55.4,55.1,29.96,ENE,72,1.1,0.0,99,0.00,CLR,,0.00,WeatherDisplay:10.37,2013-09-30 14:37:00,
2013-09-30 10:42:00,55.6,55.3,29.95,ENE,72,0.0,0.0,99,0.00,CLR,,0.00,WeatherDisplay:10.37,2013-09-30 14:42:00,
2013-09-30 10:47:00,55.7,55.4,29.95,ENE,72,0.0,0.0,99,0.00,CLR,,0.00,WeatherDisplay:10.37,2013-09-30 14:47:00,
2013-09-30 10:52:00,55.9,55.3,29.95,East,85,1.1,1.1,98,0.00,CLR,,0.00,WeatherDisplay:10.37,2013-09-30 14:52:00,
2013-09-30 10:57:00,55.9,55.3,29.95,East,96,1.1,1.1,98,0.00,CLR,,0.00,WeatherDisplay:10.37,2013-09-30 14:57:00,
2013-09-30 11:02:00,56.0,55.4,29.95,ESE,109,0.0,0.0,98,0.00,CLR,,0.00,WeatherDisplay:10.37,2013-09-30 15:02:00,
2013-09-30 11:07:00,56.2,55.6,29.95,ESE,110,0.0,0.0,98,0.00,CLR,,0.00,WeatherDisplay:10.37,2013-09-30 15:07:00,
2013-09-30 11:12:00,56.4,55.6,29.95,ESE,110,0.0,0.0,97,0.00,CLR,,0.00,WeatherDisplay:10.37,2013-09-30 15:12:00,
2013-09-30 11:17:00,56.8,55.7,29.95,ESE,113,1.1,1.1,96,0.00,CLR,,0.00,WeatherDisplay:10.37,2013-09-30 15:17:00,
2013-09-30 11:22:00,57.1,56.0,29.94,ESE,117,0.0,0.0,96,0.00,CLR,,0.00,WeatherDisplay:10.37,2013-09-30 15:22:00,
2013-09-30 11:27:00,58.3,56.6,29.94,SSE,155,5.8,5.8,94,0.00,CLR,,0.00,WeatherDisplay:10.37,2013-09-30 15:27:00,
2013-09-30 11:32:00,59.0,56.1,29.94,SE,141,0.0,0.0,90,0.00,CLR,,0.00,WeatherDisplay:10.37,2013-09-30 15:32:00,
2013-09-30 11:37:00,59.0,55.8,29.94,SSW,192,3.5,3.5,89,0.00,CLR,,0.00,WeatherDisplay:10.37,2013-09-30 15:37:00,
2013-09-30 11:42:00,59.7,55.8,29.94,South,186,2.3,2.3,87,0.00,CLR,,0.00,WeatherDisplay:10.37,2013-09-30 15:42:00,
2013-09-30 11:47:00,60.4,55.5,29.95,East,90,2.3,2.3,84,0.00,CLR,,0.00,WeatherDisplay:10.37,2013-09-30 15:47:00,
2013-09-30 11:52:00,60.6,55.1,29.94,East,92,4.6,4.6,82,0.00,CLR,,0.00,WeatherDisplay:10.37,2013-09-30 15:52:00,
2013-09-30 11:57:00,60.5,55.0,29.93,ESE,110,0.0,0.0,82,0.00,CLR,,0.00,WeatherDisplay:10.37,2013-09-30 15:57:00,
2013-09-30 12:02:00,60.9,55.0,29.93,ESE,119,5.8,5.8,81,0.00,CLR,,0.00,WeatherDisplay:10.37,2013-09-30 16:02:00,
2013-09-30 12:07:00,61.6,55.4,29.93,East,80,3.0,3.0,80,0.00,CLR,,0.00,WeatherDisplay:10.37,2013-09-30 16:07:00,
2013-09-30 12:12:00,61.7,54.8,29.94,SE,146,0.0,0.0,78,0.00,CLR,,0.00,WeatherDisplay:10.37,2013-09-30 16:12:00,
2013-09-30 12:17:00,61.9,55.0,29.93,SSE,151,1.1,1.1,78,0.00,CLR,,0.00,WeatherDisplay:10.37,2013-09-30 16:17:00,
2013-09-30 12:22:00,62.0,55.4,29.93,SE,146,4.0,4.0,79,0.00,CLR,,0.00,WeatherDisplay:10.37,2013-09-30 16:22:00,
2013-09-30 12:27:00,62.2,54.9,29.93,SE,136,6.9,6.9,77,0.00,CLR,,0.00,WeatherDisplay:10.37,2013-09-30 16:27:00,
2013-09-30 12:32:00,63.1,55.0,29.93,SSE,167,6.9,6.9,75,0.00,CLR,,0.00,WeatherDisplay:10.37,2013-09-30 16:32:00,
2013-09-30 12:37:00,63.4,55.0,29.93,South,173,2.3,2.3,74,0.00,CLR,,0.00,WeatherDisplay:10.37,2013-09-30 16:37:00,
2013-09-30 12:42:00,63.9,55.8,29.93,SSE,160,0.0,0.0,75,0.00,CLR,,0.00,WeatherDisplay:10.37,2013-09-30 16:42:00,
2013-09-30 12:47:00,64.0,55.5,29.93,WSW,249,3.5,3.5,74,0.00,CLR,,0.00,WeatherDisplay:10.37,2013-09-30 16:47:00,
2013-09-30 12:52:00,63.6,55.5,29.94,SW,236,3.5,3.5,75,0.00,CLR,,0.00,WeatherDisplay:10.37,2013-09-30 16:52:00,
2013-09-30 12:57:00,63.1,54.7,29.94,South,184,0.0,0.0,74,0.00,CLR,,0.00,WeatherDisplay:10.37,2013-09-30 16:57:00,
2013-09-30 13:02:00,63.1,54.7,29.93,South,184,0.0,0.0,74,0.00,CLR,,0.00,WeatherDisplay:10.37,2013-09-30 17:02:00,
2013-09-30 13:07:00,63.4,55.3,29.93,WSW,252,1.1,0.0,75,0.00,CLR,,0.00,WeatherDisplay:10.37,2013-09-30 17:07:00,
2013-09-30 13:12:00,63.8,55.4,29.93,WSW,250,0.0,0.0,74,0.00,CLR,,0.00,WeatherDisplay:10.37,2013-09-30 17:12:00,
2013-09-30 13:17:00,64.0,55.2,29.93,WSW,249,0.0,0.0,73,0.00,CLR,,0.00,WeatherDisplay:10.37,2013-09-30 17:17:00,
2013-09-30 13:22:00,64.3,55.1,29.93,WSW,250,3.5,3.5,72,0.00,CLR,,0.00,WeatherDisplay:10.37,2013-09-30 17:22:00,
2013-09-30 13:27:00,64.7,55.5,29.93,WSW,242,1.1,1.1,72,0.00,CLR,,0.00,WeatherDisplay:10.37,2013-09-30 17:27:00,
2013-09-30 13:32:00,64.6,55.4,29.93,SSW,213,0.0,0.0,72,0.00,CLR,,0.00,WeatherDisplay:10.37,2013-09-30 17:32:00,
2013-09-30 13:37:00,64.0,54.0,29.93,South,182,9.2,9.2,70,0.00,CLR,,0.00,WeatherDisplay:10.37,2013-09-30 17:37:00,
2013-09-30 13:42:00,63.8,53.4,29.92,SW,225,3.5,3.5,69,0.00,CLR,,0.00,WeatherDisplay:10.37,2013-09-30 17:42:00,
2013-09-30 13:47:00,64.4,54.4,29.92,WSW,257,4.6,4.6,70,0.00,CLR,,0.00,WeatherDisplay:10.37,2013-09-30 17:47:00,
2013-09-30 13:52:00,64.6,53.8,29.92,SW,221,6.9,6.9,68,0.00,CLR,,0.00,WeatherDisplay:10.37,2013-09-30 17:52:00,
2013-09-30 13:57:00,64.4,54.0,29.92,WSW,238,4.6,4.6,69,0.00,CLR,,0.00,WeatherDisplay:10.37,2013-09-30 17:57:00,
2013-09-30 14:02:00,64.5,53.7,29.92,SW,229,1.1,1.1,68,0.00,CLR,,0.00,WeatherDisplay:10.37,2013-09-30 18:02:00,
2013-09-30 14:07:00,64.8,53.2,29.92,SW,228,5.8,5.8,66,0.00,CLR,,0.00,WeatherDisplay:10.37,2013-09-30 18:07:00,
2013-09-30 14:12:00,64.9,53.7,29.91,West,259,6.0,6.0,67,0.00,CLR,,0.00,WeatherDisplay:10.37,2013-09-30 18:12:00,
2013-09-30 14:17:00,64.9,53.7,29.91,West,260,0.0,0.0,67,0.00,CLR,,0.00,WeatherDisplay:10.37,2013-09-30 18:17:00,
2013-09-30 14:22:00,64.8,53.2,29.91,SSW,209,3.5,3.5,66,0.00,CLR,,0.00,WeatherDisplay:10.37,2013-09-30 18:22:00,
2013-09-30 14:27:00,64.9,53.3,29.90,SSW,200,1.1,0.0,66,0.00,CLR,,0.00,WeatherDisplay:10.37,2013-09-30 18:27:00,
2013-09-30 14:32:00,65.2,52.7,29.90,South,191,1.1,0.0,64,0.00,CLR,,0.00,WeatherDisplay:10.37,2013-09-30 18:32:00,
2013-09-30 14:37:00,65.4,52.9,29.89,SW,223,3.5,3.5,64,0.00,CLR,,0.00,WeatherDisplay:10.37,2013-09-30 18:37:00,
2013-09-30 14:42:00,65.4,52.5,29.89,SW,225,4.6,4.6,63,0.00,CLR,,0.00,WeatherDisplay:10.37,2013-09-30 18:42:00,
2013-09-30 14:47:00,65.4,53.3,29.89,South,177,1.1,0.0,65,0.00,CLR,,0.00,WeatherDisplay:10.37,2013-09-30 18:47:00,
2013-09-30 14:52:00,65.5,53.0,29.89,South,186,5.8,5.8,64,0.00,CLR,,0.00,WeatherDisplay:10.37,2013-09-30 18:52:00,
2013-09-30 14:57:00,65.3,52.8,29.89,SSE,164,4.6,4.6,64,0.00,CLR,,0.00,WeatherDisplay:10.37,2013-09-30 18:57:00,
2013-09-30 15:02:00,65.5,53.0,29.89,South,172,4.6,4.6,64,0.00,CLR,,0.00,WeatherDisplay:10.37,2013-09-30 19:02:00,
2013-09-30 15:07:00,65.8,53.3,29.89,SSE,168,3.5,3.5,64,0.00,CLR,,0.00,WeatherDisplay:10.37,2013-09-30 19:07:00,
2013-09-30 15:12:00,66.3,53.3,29.89,SSW,211,2.3,2.3,63,0.00,CLR,,0.00,WeatherDisplay:10.37,2013-09-30 19:12:00,
2013-09-30 15:17:00,66.3,52.4,29.89,South,171,6.9,6.9,61,0.00,CLR,,0.00,WeatherDisplay:10.37,2013-09-30 19:17:00,
2013-09-30 15:22:00,66.1,52.7,29.89,SSW,194,1.0,0.0,62,0.00,CLR,,0.00,WeatherDisplay:10.37,2013-09-30 19:22:00,
2013-09-30 15:27:00,66.7,53.3,29.88,SW,219,3.5,3.5,62,0.00,CLR,,0.00,WeatherDisplay:10.37,2013-09-30 19:27:00,
2013-09-30 15:32:00,67.4,53.5,29.88,SSW,211,4.6,4.6,61,0.00,CLR,,0.00,WeatherDisplay:10.37,2013-09-30 19:32:00,
2013-09-30 15:37:00,67.2,53.3,29.89,SW,232,4.6,4.6,61,0.00,CLR,,0.00,WeatherDisplay:10.37,2013-09-30 19:37:00,
2013-09-30 15:42:00,66.7,53.3,29.89,SW,229,0.0,0.0,62,0.00,CLR,,0.00,WeatherDisplay:10.37,2013-09-30 19:42:00,
2013-09-30 15:47:00,66.5,53.1,29.88,WSW,255,2.3,0.0,62,0.00,CLR,,0.00,WeatherDisplay:10.37,2013-09-30 19:47:00,
2013-09-30 15:52:00,67.0,53.1,29.88,South,190,3.5,3.5,61,0.00,CLR,,0.00,WeatherDisplay:10.37,2013-09-30 19:52:00,
2013-09-30 15:57:00,66.7,52.4,29.88,SE,143,3.5,3.5,60,0.00,CLR,,0.00,WeatherDisplay:10.37,2013-09-30 19:57:00,
2013-09-30 16:02:00,66.4,53.0,29.88,SSE,151,0.0,0.0,62,0.00,CLR,,0.00,WeatherDisplay:10.37,2013-09-30 20:02:00,
2013-09-30 16:07:00,66.2,53.7,29.88,SSE,164,0.0,0.0,64,0.00,CLR,,0.00,WeatherDisplay:10.37,2013-09-30 20:07:00,
2013-09-30 16:12:00,66.7,53.7,29.87,SSE,165,2.3,2.3,63,0.00,CLR,,0.00,WeatherDisplay:10.37,2013-09-30 20:12:00,
2013-09-30 16:17:00,67.5,53.1,29.88,South,170,2.3,2.3,60,0.00,CLR,,0.00,WeatherDisplay:10.37,2013-09-30 20:17:00,
2013-09-30 16:22:00,68.0,52.7,29.87,South,182,10.4,10.4,58,0.00,CLR,,0.00,WeatherDisplay:10.37,2013-09-30 20:22:00,
2013-09-30 16:27:00,67.5,52.2,29.87,SSW,194,1.1,0.0,58,0.00,CLR,,0.00,WeatherDisplay:10.37,2013-09-30 20:27:00,
2013-09-30 16:32:00,67.5,53.6,29.87,SSW,199,2.0,2.0,61,0.00,CLR,,0.00,WeatherDisplay:10.37,2013-09-30 20:32:00,
2013-09-30 16:37:00,67.9,53.0,29.87,SSW,196,3.5,3.5,59,0.00,CLR,,0.00,WeatherDisplay:10.37,2013-09-30 20:37:00,
2013-09-30 16:42:00,68.2,52.4,29.88,SSW,205,5.8,5.8,57,0.00,CLR,,0.00,WeatherDisplay:10.37,2013-09-30 20:42:00,
2013-09-30 16:47:00,67.6,52.8,29.88,SSW,205,1.1,1.1,59,0.00,CLR,,0.00,WeatherDisplay:10.37,2013-09-30 20:47:00,
2013-09-30 16:52:00,67.1,52.7,29.87,SW,217,1.1,1.1,60,0.00,CLR,,0.00,WeatherDisplay:10.37,2013-09-30 20:52:00,
2013-09-30 16:57:00,67.5,52.7,29.87,SSW,207,6.9,6.9,59,0.00,CLR,,0.00,WeatherDisplay:10.37,2013-09-30 20:57:00,
2013-09-30 17:02:00,67.8,52.9,29.87,South,178,3.5,3.5,59,0.00,CLR,,0.00,WeatherDisplay:10.37,2013-09-30 21:02:00,
2013-09-30 17:07:00,67.9,53.5,29.87,South,179,2.3,2.3,60,0.00,CLR,,0.00,WeatherDisplay:10.37,2013-09-30 21:07:00,
2013-09-30 17:12:00,67.9,53.0,29.87,SSW,200,3.5,3.5,59,0.00,CLR,,0.00,WeatherDisplay:10.37,2013-09-30 21:12:00,
2013-09-30 17:17:00,67.8,52.0,29.86,WSW,242,4.6,4.6,57,0.00,CLR,,0.00,WeatherDisplay:10.37,2013-09-30 21:17:00,
2013-09-30 17:22:00,67.7,52.9,29.87,WSW,253,3.5,3.5,59,0.00,CLR,,0.00,WeatherDisplay:10.37,2013-09-30 21:22:00,
2013-09-30 17:27:00,67.5,52.7,29.86,SSW,206,0.0,0.0,59,0.00,CLR,,0.00,WeatherDisplay:10.37,2013-09-30 21:27:00,
2013-09-30 17:32:00,67.5,53.1,29.86,SSW,192,0.0,0.0,60,0.00,CLR,,0.00,WeatherDisplay:10.37,2013-09-30 21:32:00,
2013-09-30 17:37:00,67.5,53.1,29.86,SSE,166,2.3,2.3,60,0.00,CLR,,0.00,WeatherDisplay:10.37,2013-09-30 21:37:00,
2013-09-30 17:42:00,67.6,55.4,29.86,SSE,166,0.0,0.0,65,0.00,CLR,,0.00,WeatherDisplay:10.37,2013-09-30 21:42:00,
2013-09-30 17:47:00,67.2,53.7,29.86,South,170,3.5,3.5,62,0.00,CLR,,0.00,WeatherDisplay:10.37,2013-09-30 21:47:00,
2013-09-30 17:52:00,66.7,53.3,29.86,South,170,0.0,0.0,62,0.00,CLR,,0.00,WeatherDisplay:10.37,2013-09-30 21:52:00,
2013-09-30 17:57:00,66.4,53.4,29.86,South,169,0.0,0.0,63,0.00,CLR,,0.00,WeatherDisplay:10.37,2013-09-30 21:57:00,
2013-09-30 18:02:00,66.3,52.9,29.86,South,169,0.0,0.0,62,0.00,CLR,,0.00,WeatherDisplay:10.37,2013-09-30 22:02:00,
2013-09-30 18:07:00,66.1,53.6,29.86,South,169,0.0,0.0,64,0.00,CLR,,0.00,WeatherDisplay:10.37,2013-09-30 22:07:00,
2013-09-30 18:12:00,65.7,53.6,29.87,South,178,0.0,0.0,65,0.00,CLR,,0.00,WeatherDisplay:10.37,2013-09-30 22:12:00,
2013-09-30 18:17:00,65.2,54.0,29.87,South,178,0.0,0.0,67,0.00,CLR,,0.00,WeatherDisplay:10.37,2013-09-30 22:17:00,
2013-09-30 18:22:00,64.9,53.3,29.87,South,178,0.0,0.0,66,0.00,CLR,,0.00,WeatherDisplay:10.37,2013-09-30 22:22:00,
2013-09-30 18:27:00,64.6,53.4,29.87,South,178,0.0,0.0,67,0.00,CLR,,0.00,WeatherDisplay:10.37,2013-09-30 22:27:00,
2013-09-30 18:32:00,64.2,53.0,29.87,South,178,0.0,0.0,67,0.00,CLR,,0.00,WeatherDisplay:10.37,2013-09-30 22:32:00,
2013-09-30 18:37:00,63.8,53.0,29.87,South,178,0.0,0.0,68,0.00,CLR,,0.00,WeatherDisplay:10.37,2013-09-30 22:37:00,
2013-09-30 18:42:00,63.5,54.3,29.87,South,178,0.0,0.0,72,0.00,CLR,,0.00,WeatherDisplay:10.37,2013-09-30 22:42:00,
2013-09-30 18:47:00,63.0,54.2,29.87,South,178,0.0,0.0,73,0.00,CLR,,0.00,WeatherDisplay:10.37,2013-09-30 22:47:00,
2013-09-30 18:52:00,62.6,55.3,29.87,South,178,0.0,0.0,77,0.00,CLR,,0.00,WeatherDisplay:10.37,2013-09-30 22:52:00,
2013-09-30 18:57:00,62.0,55.1,29.87,South,178,0.0,0.0,78,0.00,CLR,,0.00,WeatherDisplay:10.37,2013-09-30 22:57:00,
2013-09-30 19:02:00,61.4,54.8,29.87,South,178,0.0,0.0,79,0.00,CLR,,0.00,WeatherDisplay:10.37,2013-09-30 23:02:00,
2013-09-30 19:07:00,60.7,54.1,29.87,South,178,0.0,0.0,79,0.00,CLR,,0.00,WeatherDisplay:10.37,2013-09-30 23:07:00,
2013-09-30 19:12:00,60.2,54.0,29.87,South,178,0.0,0.0,80,0.00,CLR,,0.00,WeatherDisplay:10.37,2013-09-30 23:12:00,
2013-09-30 19:17:00,59.5,53.7,29.87,South,178,0.0,0.0,81,0.00,CLR,,0.00,WeatherDisplay:10.37,2013-09-30 23:17:00,
2013-09-30 19:22:00,59.0,53.8,29.87,South,178,0.0,0.0,83,0.00,CLR,,0.00,WeatherDisplay:10.37,2013-09-30 23:22:00,
2013-09-30 19:27:00,58.5,53.7,29.87,South,178,0.0,0.0,84,0.00,CLR,,0.00,WeatherDisplay:10.37,2013-09-30 23:27:00,
2013-09-30 19:32:00,57.9,53.4,29.86,South,178,0.0,0.0,85,0.00,CLR,,0.00,WeatherDisplay:10.37,2013-09-30 23:32:00,
2013-09-30 19:37:00,57.4,53.2,29.86,South,178,0.0,0.0,86,0.00,CLR,,0.00,WeatherDisplay:10.37,2013-09-30 23:37:00,
2013-09-30 19:42:00,57.0,52.9,29.86,South,178,0.0,0.0,86,0.00,CLR,,0.00,WeatherDisplay:10.37,2013-09-30 23:42:00,
2013-09-30 19:47:00,56.6,52.8,29.86,South,178,0.0,0.0,87,0.00,CLR,,0.00,WeatherDisplay:10.37,2013-09-30 23:47:00,
2013-09-30 19:52:00,56.2,52.4,29.87,South,178,0.0,0.0,87,0.00,CLR,,0.00,WeatherDisplay:10.37,2013-09-30 23:52:00,
2013-09-30 19:57:00,55.8,52.3,29.87,South,178,0.0,0.0,88,0.00,CLR,,0.00,WeatherDisplay:10.37,2013-09-30 23:57:00,
2013-09-30 20:02:00,55.4,52.2,29.87,South,178,0.0,0.0,89,0.00,CLR,,0.00,WeatherDisplay:10.37,2013-10-01 00:02:00,
2013-09-30 20:07:00,55.2,52.0,29.87,South,178,0.0,0.0,89,0.00,CLR,,0.00,WeatherDisplay:10.37,2013-10-01 00:07:00,
2013-09-30 20:12:00,54.9,52.0,29.87,South,178,0.0,0.0,90,0.00,CLR,,0.00,WeatherDisplay:10.37,2013-10-01 00:12:00,
2013-09-30 20:17:00,54.6,51.7,29.87,South,178,0.0,0.0,90,0.00,CLR,,0.00,WeatherDisplay:10.37,2013-10-01 00:17:00,
2013-09-30 20:22:00,54.3,51.7,29.87,South,178,0.0,0.0,91,0.00,CLR,,0.00,WeatherDisplay:10.37,2013-10-01 00:22:00,
2013-09-30 20:27:00,54.1,51.5,29.87,South,178,0.0,0.0,91,0.00,CLR,,0.00,WeatherDisplay:10.37,2013-10-01 00:27:00,
2013-09-30 20:32:00,53.8,51.2,29.87,South,178,0.0,0.0,91,0.00,CLR,,0.00,WeatherDisplay:10.37,2013-10-01 00:32:00,
2013-09-30 20:37:00,53.6,51.3,29.88,South,178,0.0,0.0,92,0.00,CLR,,0.00,WeatherDisplay:10.37,2013-10-01 00:37:00,
2013-09-30 20:42:00,53.3,51.0,29.88,South,178,0.0,0.0,92,0.00,CLR,,0.00,WeatherDisplay:10.37,2013-10-01 00:42:00,
2013-09-30 20:47:00,53.1,50.8,29.88,South,178,0.0,0.0,92,0.00,CLR,,0.00,WeatherDisplay:10.37,2013-10-01 00:47:00,
2013-09-30 20:52:00,52.8,50.5,29.88,South,178,0.0,0.0,92,0.00,CLR,,0.00,WeatherDisplay:10.37,2013-10-01 00:52:00,
2013-09-30 20:57:00,52.5,50.5,29.88,South,178,0.0,0.0,93,0.00,CLR,,0.00,WeatherDisplay:10.37,2013-10-01 00:57:00,
2013-09-30 21:02:00,52.3,50.3,29.88,South,178,0.0,0.0,93,0.00,CLR,,0.00,WeatherDisplay:10.37,2013-10-01 01:02:00,
2013-09-30 21:07:00,52.1,50.1,29.88,South,178,0.0,0.0,93,0.00,CLR,,0.00,WeatherDisplay:10.37,2013-10-01 01:07:00,
2013-09-30 21:12:00,51.8,49.8,29.88,South,178,0.0,0.0,93,0.00,CLR,,0.00,WeatherDisplay:10.37,2013-10-01 01:12:00,
2013-09-30 21:17:00,51.6,49.9,29.88,South,178,0.0,0.0,94,0.00,CLR,,0.00,WeatherDisplay:10.37,2013-10-01 01:17:00,
2013-09-30 21:22:00,51.4,49.7,29.88,South,178,0.0,0.0,94,0.00,CLR,,0.00,WeatherDisplay:10.37,2013-10-01 01:22:00,
2013-09-30 21:27:00,51.2,49.5,29.88,South,178,0.0,0.0,94,0.00,CLR,,0.00,WeatherDisplay:10.37,2013-10-01 01:27:00,
2013-09-30 21:32:00,51.0,49.3,29.89,South,178,0.0,0.0,94,0.00,CLR,,0.00,WeatherDisplay:10.37,2013-10-01 01:32:00,
2013-09-30 21:37:00,50.9,49.2,29.89,South,178,0.0,0.0,94,0.00,CLR,,0.00,WeatherDisplay:10.37,2013-10-01 01:37:00,
2013-09-30 21:42:00,50.8,49.1,29.89,South,178,0.0,0.0,94,0.00,CLR,,0.00,WeatherDisplay:10.37,2013-10-01 01:42:00,
2013-09-30 21:47:00,50.7,49.0,29.89,South,178,0.0,0.0,94,0.00,CLR,,0.00,WeatherDisplay:10.37,2013-10-01 01:47:00,
2013-09-30 21:52:00,50.5,49.1,29.88,South,178,0.0,0.0,95,0.00,CLR,,0.00,WeatherDisplay:10.37,2013-10-01 01:52:00,
2013-09-30 21:57:00,50.3,48.6,29.88,South,178,0.0,0.0,94,0.00,CLR,,0.00,WeatherDisplay:10.37,2013-10-01 01:57:00,
2013-09-30 22:02:00,50.1,48.7,29.88,South,178,0.0,0.0,95,0.00,CLR,,0.00,WeatherDisplay:10.37,2013-10-01 02:02:00,
2013-09-30 22:07:00,49.9,48.5,29.88,South,178,0.0,0.0,95,0.00,CLR,,0.00,WeatherDisplay:10.37,2013-10-01 02:07:00,
2013-09-30 22:12:00,49.8,48.4,29.88,South,178,0.0,0.0,95,0.00,CLR,,0.00,WeatherDisplay:10.37,2013-10-01 02:12:00,
2013-09-30 22:17:00,49.7,48.3,29.88,South,178,0.0,0.0,95,0.00,CLR,,0.00,WeatherDisplay:10.37,2013-10-01 02:17:00,
2013-09-30 22:22:00,49.6,48.2,29.88,South,178,0.0,0.0,95,0.00,CLR,,0.00,WeatherDisplay:10.37,2013-10-01 02:22:00,
2013-09-30 22:27:00,49.5,48.1,29.88,South,178,0.0,0.0,95,0.00,CLR,,0.00,WeatherDisplay:10.37,2013-10-01 02:27:00,
2013-09-30 22:32:00,49.4,48.0,29.88,South,178,0.0,0.0,95,0.00,CLR,,0.00,WeatherDisplay:10.37,2013-10-01 02:32:00,
2013-09-30 22:38:00,49.2,47.8,29.88,South,178,0.0,0.0,95,0.00,CLR,,0.00,WeatherDisplay:10.37,2013-10-01 02:38:00,
2013-09-30 22:43:00,49.2,47.8,29.88,South,178,0.0,0.0,95,0.00,CLR,,0.00,WeatherDisplay:10.37,2013-10-01 02:43:00,
2013-09-30 22:48:00,49.0,47.6,29.88,South,178,0.0,0.0,95,0.00,CLR,,0.00,WeatherDisplay:10.37,2013-10-01 02:48:00,
2013-09-30 22:53:00,48.9,47.5,29.88,South,178,0.0,0.0,95,0.00,CLR,,0.00,WeatherDisplay:10.37,2013-10-01 02:53:00,
2013-09-30 22:58:00,48.8,47.4,29.88,South,178,0.0,0.0,95,0.00,CLR,,0.00,WeatherDisplay:10.37,2013-10-01 02:58:00,
2013-09-30 23:03:00,48.7,47.3,29.88,South,178,0.0,0.0,95,0.00,CLR,,0.00,WeatherDisplay:10.37,2013-10-01 03:03:00,
2013-09-30 23:08:00,48.5,47.4,29.88,South,178,0.0,0.0,96,0.00,CLR,,0.00,WeatherDisplay:10.37,2013-10-01 03:08:00,
2013-09-30 23:13:00,48.4,47.3,29.88,South,178,0.0,0.0,96,0.00,CLR,,0.00,WeatherDisplay:10.37,2013-10-01 03:13:00,
2013-09-30 23:18:00,48.3,47.2,29.88,South,178,0.0,0.0,96,0.00,CLR,,0.00,WeatherDisplay:10.37,2013-10-01 03:18:00,
2013-09-30 23:23:00,48.2,47.1,29.88,South,178,0.0,0.0,96,0.00,CLR,,0.00,WeatherDisplay:10.37,2013-10-01 03:23:00,
2013-09-30 23:28:00,48.1,47.0,29.88,South,178,0.0,0.0,96,0.00,CLR,,0.00,WeatherDisplay:10.37,2013-10-01 03:28:00,
2013-09-30 23:33:00,48.1,47.0,29.88,South,178,0.0,0.0,96,0.00,CLR,,0.00,WeatherDisplay:10.37,2013-10-01 03:33:00,
2013-09-30 23:38:00,48.0,46.9,29.88,South,178,0.0,0.0,96,0.00,CLR,,0.00,WeatherDisplay:10.37,2013-10-01 03:38:00,
2013-09-30 23:43:00,47.9,46.8,29.88,South,178,0.0,0.0,96,0.00,CLR,,0.00,WeatherDisplay:10.37,2013-10-01 03:43:00,
2013-09-30 23:48:00,47.8,46.7,29.88,South,178,0.0,0.0,96,0.00,CLR,,0.00,WeatherDisplay:10.37,2013-10-01 03:48:00,
2013-09-30 23:53:00,47.7,46.6,29.88,South,178,0.0,0.0,96,0.00,CLR,,0.00,WeatherDisplay:10.37,2013-10-01 03:53:00,
2013-09-30 23:58:00,47.6,46.5,29.88,South,178,0.0,0.0,96,0.00,CLR,,0.00,WeatherDisplay:10.37,2013-10-01 03:58:00,